Retour au catalogue

CSTP-1.1

ActifScienceSSO
NORAD 57202·PAYLOAD·🇷🇺 Russia
Ce nom de satellite n'a pas encore été confirmé par des sources officielles.

Lancé Jun 27, 2023 depuis Vostochny Cosmodrome

Loading…

Prochains Passages (prochaines 24 heures)

TLE

FraisSource: Space-Track

Époque: Sep 14, 2026, 12:08 UTC

1 57202U 23091AN  26257.50577551  .00004040  00000-0  19162-3 0  9998
2 57202  97.5020 315.8151 0010096 149.9919 210.1897 15.19814943177528

Suivez CSTP-1.1 en temps réel avec AllMySat

Download on the App Store